EW4351 Weather Reports


time (UTC)temp
F
wind
direction
speed
knots
gust
knots
rain 1hr
in
rain 24hr
in
rain mn
in
humidity
%
barometer
mb
20211017151925 57 290 0.0 0.0 0.00 0.91 0.87 95 1001.8
20211017145021 58 257 0.0 0.9 0.00 0.91 0.87 95 1001.9
20211017142113 59 190 0.0 0.0 0.05 0.91 0.87 96 1001.6
20211017135236 59 94 0.0 0.0 0.00 0.89 0.86 96 1001.3
20211017132200 59 94 0.0 0.0 0.00 0.88 0.86 96 1001.4
20211017125309 59 94 0.0 0.0 0.00 0.92 0.85 96 1001.8
20211017122412 59 94 0.0 0.0 0.00 0.99 0.84 96 1001.0
20211017115530 59 134 0.0 0.0 0.00 1.08 0.84 95 1001.1
20211017112408 59 134 0.0 0.0 0.00 1.09 0.84 95 1001.6
20211017105337 59 134 0.0 0.0 0.00 1.09 0.84 95 1000.7
20211017102418 59 134 0.0 0.9 0.06 1.09 0.84 95 1001.6
20211017095535 59 236 0.0 0.0 0.52 0.97 0.77 95 1002.1
20211017092655 60 53 0.0 0.0 0.10 0.85 0.61 94 1001.3
20211017085807 63 207 0.0 0.0 0.45 0.73 0.50 95 1001.4
20211017082828 63 202 1.7 5.2 0.52 0.62 0.43 95 1001.4
20211017075918 63 220 1.7 7.0 0.04 0.59 0.33 95 1001.4
20211017072832 63 198 2.6 7.0 0.16 0.54 0.31 95 1001.6
20211017065751 63 192 1.7 6.1 0.20 0.30 0.15 94 1002.0
20211017062741 64 192 1.7 6.1 0.00 0.26 0.00 93 1002.4
20211017055759 64 173 1.7 7.0 0.00 0.26 0.00 93 1003.0
20211017052835 64 162 1.7 7.8 0.00 0.26 0.00 93 1003.8
20211017045903 64 213 2.6 7.8 0.00 0.26 0.00 94 1004.1
20211017042953 64 173 2.6 8.7 0.00 0.26 0.00 93 1004.3
20211017040046 64 208 2.6 7.0 0.00 0.26 0.00 94 1005.0
20211017033056 64 178 2.6 6.1 0.00 0.26 0.27 94 1005.6
20211017025939 64 195 3.5 10.4 0.00 0.26 0.27 94 1006.0
20211017023023 64 200 2.6 6.1 0.00 0.26 0.27 94 1006.3
20211017020007 64 185 0.9 5.2 0.00 0.26 0.26 94 1006.6
20211017013002 63 215 1.7 3.5 0.00 0.26 0.26 94 1006.8
20211017010000 63 215 0.9 4.3 0.00 0.26 0.26 95 1007.0
20211017002946 62 219 0.0 3.5 0.00 0.26 0.26 95 1007.3
20211016235830 62 217 0.0 2.6 0.00 0.26 0.26 94 1007.4
20211016232709 63 161 0.9 3.5 0.00 0.26 0.26 95 1007.7
20211016225643 62 225 0.0 2.6 0.00 0.26 0.26 95 1007.7
20211016222518 62 212 0.9 4.3 0.00 0.26 0.26 95 1007.7
20211016215353 63 205 0.9 4.3 0.00 0.26 0.26 95 1007.8
20211016212344 63 178 0.9 3.5 0.00 0.26 0.26 95 1007.8
20211016205218 63 173 0.0 2.6 0.00 0.26 0.26 95 1007.9
20211016202124 63 209 0.0 0.9 0.00 0.26 0.26 96 1008.2
20211016195116 62 42 0.0 1.7 0.00 0.26 0.26 96 1008.3
20211016192220 62 18 0.0 1.7 0.00 0.26 0.26 96 1008.6
20211016185236 62 181 0.0 2.6 0.00 0.26 0.26 96 1008.6
20211016182301 62 212 0.9 2.6 0.00 0.24 0.25 96 1008.7
20211016175219 62 188 0.9 3.5 0.00 0.24 0.25 96 1009.0
20211016172202 62 227 0.9 3.5 0.00 0.24 0.25 96 1009.1
20211016165045 63 169 0.9 5.2 0.00 0.24 0.25 96 1009.6
20211016161912 62 179 0.0 2.6 0.00 0.24 0.25 96 1010.1
20211016154855 63 194 0.9 2.6 0.00 0.24 0.25 96 1010.4